| time (UTC) | temp C | wind direction | speed KPH | gust KPH | rain 1hr cm | rain 24hr cm | rain mn cm | humidity % | barometer mb |
| 20260506163055 | 19 | 321 | 1.6 | 9.7 | 0.23 | 0.23 | 0.23 | 93 | 1009.3 |
| 20260506161534 | 20 | 286 | 0.0 | 11.3 | 0.23 | 0.23 | 0.23 | 91 | 1009.4 |
| 20260506160030 | 21 | 351 | 1.6 | 11.3 | 0.08 | 0.08 | 0.08 | 83 | 1009.5 |
| 20260506154526 | 25 | 42 | 0.0 | 8.0 | 0.00 | 0.00 | 0.00 | 85 | 1008.9 |
| 20260506153024 | 25 | 109 | 0.0 | 8.0 | 0.00 | 0.00 | 0.00 | 85 | 1008.8 |
| 20260506151521 | 23 | 114 | 0.0 | 6.4 | 0.00 | 0.00 | 0.00 | 89 | 1008.6 |
| 20260506150022 | 23 | 68 | 1.6 | 4.8 | 0.00 | 0.00 | 0.00 | 91 | 1008.4 |
| 20260506144523 | 23 | 80 | 1.6 | 6.4 | 0.00 | 0.00 | 0.00 | 93 | 1008.2 |
| 20260506143019 | 22 | 81 | 1.6 | 9.7 | 0.00 | 0.00 | 0.00 | 94 | 1008.3 |
| 20260506141517 | 22 | 83 | 1.6 | 4.8 | 0.00 | 0.00 | 0.00 | 94 | 1008.2 |
| 20260506140015 | 22 | 59 | 1.6 | 6.4 | 0.00 | 0.00 | 0.00 | 95 | 1008.2 |
| 20260506134513 | 22 | 81 | 0.0 | 8.0 | 0.00 | 0.00 | 0.00 | 95 | 1007.9 |
| 20260506133011 | 22 | 100 | 1.6 | 6.4 | 0.00 | 0.00 | 0.00 | 95 | 1007.0 |
| 20260506131513 | 22 | 88 | 0.0 | 6.4 | 0.00 | 0.00 | 0.00 | 96 | 1006.9 |
| 20260506130007 | 22 | 94 | 0.0 | 4.8 | 0.00 | 0.00 | 0.00 | 96 | 1006.8 |
| 20260506124506 | 22 | 82 | 0.0 | 3.2 | 0.00 | 0.00 | 0.00 | 95 | 1006.6 |
| 20260506123006 | 22 | 94 | 0.0 | 4.8 | 0.00 | 0.00 | 0.00 | 95 | 1006.5 |
| 20260506121505 | 22 | 101 | 1.6 | 4.8 | 0.00 | 0.00 | 0.00 | 95 | 1006.4 |
| 20260506120006 | 22 | 155 | 0.0 | 1.6 | 0.00 | 0.00 | 0.00 | 95 | 1006.4 |
| 20260506114504 | 22 | 155 | 0.0 | 0.0 | 0.00 | 0.00 | 0.00 | 95 | 1006.5 |
| 20260506113003 | 22 | 82 | 0.0 | 4.8 | 0.00 | 0.00 | 0.00 | 95 | 1006.3 |
| 20260506111502 | 22 | 64 | 3.2 | 4.8 | 0.00 | 0.00 | 0.00 | 95 | 1006.5 |
| 20260506110001 | 22 | 104 | 0.0 | 3.2 | 0.00 | 0.00 | 0.00 | 95 | 1006.7 |
| 20260506104603 | 22 | 125 | 0.0 | 3.2 | 0.00 | 0.00 | 0.00 | 95 | 1006.7 |
| 20260506103100 | 22 | 195 | 1.6 | 4.8 | 0.00 | 0.00 | 0.00 | 95 | 1006.7 |
| 20260506101605 | 22 | 111 | 0.0 | 8.0 | 0.00 | 0.00 | 0.00 | 95 | 1006.6 |
| 20260506100058 | 22 | 135 | 1.6 | 8.0 | 0.00 | 0.00 | 0.00 | 95 | 1006.4 |
| 20260506094621 | 22 | 126 | 1.6 | 6.4 | 0.00 | 0.00 | 0.00 | 94 | 1006.5 |
| 20260506093056 | 22 | 98 | 1.6 | 9.7 | 0.00 | 0.00 | 0.00 | 94 | 1006.4 |
| 20260506091553 | 22 | 126 | 0.0 | 4.8 | 0.00 | 0.00 | 0.00 | 94 | 1006.3 |
| 20260506090051 | 22 | 169 | 0.0 | 8.0 | 0.00 | 0.00 | 0.00 | 93 | 1006.1 |
| 20260506084550 | 22 | 172 | 3.2 | 9.7 | 0.00 | 0.00 | 0.00 | 92 | 1006.0 |
| 20260506083048 | 22 | 177 | 4.8 | 11.3 | 0.00 | 0.00 | 0.00 | 92 | 1006.0 |
| 20260506081546 | 22 | 192 | 4.8 | 12.9 | 0.00 | 0.00 | 0.00 | 91 | 1006.0 |
| 20260506073045 | 23 | 114 | 1.6 | 8.0 | 0.00 | 0.00 | 0.00 | 90 | 1006.2 |
| 20260506071540 | 23 | 142 | 3.2 | 8.0 | 0.00 | 0.00 | 0.00 | 89 | 1006.4 |
| 20260506061536 | 23 | 152 | 1.6 | 11.3 | 0.00 | 0.00 | 0.00 | 89 | 1006.8 |
| 20260506044538 | 23 | 102 | 4.8 | 11.3 | 0.00 | 0.00 | 0.00 | 88 | 1006.6 |
| 20260506043027 | 23 | 85 | 3.2 | 9.7 | 0.00 | 0.00 | 0.00 | 88 | 1006.6 |
| 20260506041527 | 23 | 76 | 4.8 | 9.7 | 0.00 | 0.00 | 0.00 | 87 | 1006.4 |
| 20260506040048 | 23 | 97 | 1.6 | 9.7 | 0.00 | 0.00 | 0.00 | 86 | 1006.2 |
| 20260506034525 | 23 | 104 | 1.6 | 6.4 | 0.00 | 0.00 | 0.00 | 87 | 1006.1 |
| 20260506033024 | 23 | 89 | 0.0 | 1.6 | 0.00 | 0.00 | 0.00 | 85 | 1006.0 |
| 20260506031538 | 23 | 88 | 0.0 | 1.6 | 0.00 | 0.00 | 0.00 | 84 | 1005.9 |
| 20260506030023 | 24 | 91 | 1.6 | 4.8 | 0.00 | 0.00 | 0.00 | 83 | 1005.7 |
| 20260506024522 | 24 | 82 | 1.6 | 6.4 | 0.00 | 0.00 | 0.00 | 82 | 1005.5 |
| 20260506023021 | 24 | 114 | 0.0 | 0.0 | 0.00 | 0.00 | 0.00 | 81 | 1005.3 |
| 20260506021520 | 25 | 106 | 0.0 | 4.8 | 0.00 | 0.00 | 0.00 | 80 | 1004.9 |
| 20260506020019 | 25 | 107 | 0.0 | 3.2 | 0.00 | 0.00 | 0.00 | 78 | 1004.7 |
| 20260506014518 | 25 | 92 | 0.0 | 4.8 | 0.00 | 0.00 | 0.00 | 77 | 1004.4 |
| 20260506013018 | 26 | 128 | 1.6 | 6.4 | 0.00 | 0.00 | 0.00 | 75 | 1004.1 |
| 20260506011517 | 26 | 88 | 1.6 | 4.8 | 0.00 | 0.00 | 0.00 | 73 | 1003.9 |
| 20260506010016 | 27 | 93 | 1.6 | 4.8 | 0.00 | 0.00 | 0.00 | 72 | 1003.8 |
| 20260506004523 | 27 | 203 | 0.0 | 3.2 | 0.00 | 0.00 | 0.00 | 70 | 1004.0 |
| 20260506003016 | 27 | 169 | 3.2 | 9.7 | 0.00 | 0.00 | 0.00 | 69 | 1004.1 |
| 20260506001515 | 28 | 209 | 4.8 | 9.7 | 0.00 | 0.00 | 0.00 | 68 | 1004.1 |
| 20260506000013 | 28 | 227 | 4.8 | 9.7 | 0.00 | 0.00 | 0.00 | 67 | 1004.0 |
| 20260505234512 | 28 | 179 | 4.8 | 12.9 | 0.00 | 0.00 | 0.00 | 68 | 1004.1 |
| 20260505233011 | 28 | 199 | 1.6 | 11.3 | 0.00 | 0.00 | 0.00 | 67 | 1003.9 |
| 20260505231510 | 28 | 216 | 4.8 | 12.9 | 0.00 | 0.00 | 0.00 | 68 | 1003.8 |
| 20260505230012 | 28 | 256 | 1.6 | 8.0 | 0.00 | 0.00 | 0.00 | 68 | 1003.8 |
| 20260505224509 | 28 | 244 | 6.4 | 12.9 | 0.00 | 0.00 | 0.00 | 65 | 1004.1 |
| 20260505223007 | 28 | 256 | 3.2 | 11.3 | 0.00 | 0.00 | 0.00 | 68 | 1004.0 |
| 20260505221510 | 28 | 230 | 4.8 | 12.9 | 0.00 | 0.00 | 0.00 | 66 | 1003.8 |
| 20260505220004 | 28 | 260 | 3.2 | 9.7 | 0.00 | 0.00 | 0.00 | 66 | 1004.0 |
| 20260505214503 | 29 | 266 | 4.8 | 16.1 | 0.00 | 0.00 | 0.00 | 66 | 1004.0 |
| 20260505213003 | 29 | 223 | 6.4 | 12.9 | 0.00 | 0.00 | 0.00 | 63 | 1004.1 |
| 20260505211502 | 29 | 252 | 8.0 | 14.5 | 0.00 | 0.00 | 0.00 | 64 | 1004.2 |
| 20260505210103 | 30 | 229 | 4.8 | 14.5 | 0.00 | 0.00 | 0.00 | 65 | 1004.4 |
| 20260505210001 | 30 | 208 | 6.4 | 14.5 | 0.00 | 0.00 | 0.00 | 63 | 1004.5 |
| 20260505204601 | 29 | 134 | 4.8 | 16.1 | 0.00 | 0.00 | 0.00 | 65 | 1004.6 |
| 20260505203057 | 29 | 263 | 8.0 | 16.1 | 0.00 | 0.00 | 0.00 | 64 | 1004.8 |
| 20260505201556 | 28 | 210 | 4.8 | 11.3 | 0.00 | 0.00 | 0.00 | 67 | 1005.2 |
| 20260505200049 | 28 | 229 | 4.8 | 16.1 | 0.00 | 0.00 | 0.00 | 68 | 1005.5 |
| 20260505194546 | 27 | 294 | 8.0 | 14.5 | 0.00 | 0.00 | 0.00 | 71 | 1005.8 |
| 20260505193041 | 27 | 244 | 6.4 | 14.5 | 0.00 | 0.00 | 0.00 | 73 | 1005.9 |
| 20260505191541 | 27 | 218 | 4.8 | 11.3 | 0.00 | 0.00 | 0.00 | 72 | 1006.0 |
| 20260505190039 | 26 | 195 | 6.4 | 14.5 | 0.00 | 0.00 | 0.00 | 73 | 1006.3 |
| 20260505184533 | 26 | 265 | 8.0 | 14.5 | 0.00 | 0.00 | 0.00 | 75 | 1006.7 |
| 20260505183035 | 25 | 212 | 6.4 | 17.7 | 0.00 | 0.00 | 0.00 | 76 | 1006.7 |
| 20260505181529 | 25 | 237 | 4.8 | 12.9 | 0.00 | 0.00 | 0.00 | 77 | 1006.9 |
| 20260505180025 | 25 | 256 | 6.4 | 12.9 | 0.00 | 0.00 | 0.00 | 78 | 1007.0 |
| 20260505174521 | 23 | 257 | 6.4 | 16.1 | 0.00 | 0.00 | 0.00 | 82 | 1007.3 |
| 20260505173020 | 23 | 272 | 8.0 | 16.1 | 0.00 | 0.00 | 0.00 | 82 | 1007.3 |
| 20260505171522 | 23 | 240 | 6.4 | 20.9 | 0.00 | 0.00 | 0.00 | 84 | 1007.4 |
| 20260505170017 | 22 | 220 | 6.4 | 14.5 | 0.00 | 0.00 | 0.00 | 85 | 1007.5 |
| 20260505164509 | 22 | 246 | 4.8 | 14.5 | 0.00 | 0.00 | 0.00 | 87 | 1007.4 |